EZY38MA EGGD-EGNS

Flight info

Callsign EZY38MA
Flight time 0h 41m
Altitude 22000
Route BCN P69 INFUS/N0364F240 P69 DIZIM N864 WAL M146 LUSOD DCT IOM
Aircraft A320/M-SDE2E3FGHIJ1RWXYZ/LB1

Departure

Time 2026-05-07 11:29
Airport Bristol Airport (EGGD)

Arrival

Time 2026-05-07 12:10
Airport Isle of Man Airport (EGNS)
Time Latitude Longitude Altitude Speed Heading
2026-05-07 11:03 51.38556 -2.71470 626 ft 0 kts 357°
2026-05-07 11:21 51.38550 -2.71470 626 ft 2 kts 357°
2026-05-07 11:21 51.38533 -2.71468 621 ft 2 kts 357°
2026-05-07 11:21 51.38516 -2.71465 625 ft 2 kts 341°
2026-05-07 11:22 51.38500 -2.71456 625 ft 2 kts 336°
2026-05-07 11:22 51.38488 -2.71439 625 ft 2 kts 267°
2026-05-07 11:22 51.38488 -2.71437 625 ft 0 kts 267°
2026-05-07 11:24 51.38488 -2.71458 622 ft 4 kts 267°
2026-05-07 11:25 51.38483 -2.71519 621 ft 5 kts 255°
2026-05-07 11:25 51.38469 -2.71562 618 ft 4 kts 233°
2026-05-07 11:25 51.38440 -2.71633 616 ft 12 kts 248°
2026-05-07 11:25 51.38428 -2.71819 617 ft 21 kts 266°
2026-05-07 11:26 51.38424 -2.72065 614 ft 22 kts 273°
2026-05-07 11:26 51.38421 -2.72275 615 ft 19 kts 266°
2026-05-07 11:26 51.38412 -2.72491 615 ft 20 kts 266°
2026-05-07 11:26 51.38404 -2.72722 615 ft 22 kts 267°
2026-05-07 11:27 51.38396 -2.72927 626 ft 18 kts 265°
2026-05-07 11:27 51.38388 -2.73107 616 ft 9 kts 266°
2026-05-07 11:27 51.38384 -2.73203 616 ft 8 kts 266°
2026-05-07 11:27 51.38375 -2.73279 622 ft 6 kts 246°
2026-05-07 11:28 51.38349 -2.73325 627 ft 5 kts 217°
2026-05-07 11:28 51.38300 -2.73345 616 ft 10 kts 180°
2026-05-07 11:28 51.38232 -2.73307 625 ft 11 kts 141°
2026-05-07 11:28 51.38222 -2.73153 621 ft 24 kts 85°
2026-05-07 11:29 51.38247 -2.72433 614 ft 102 kts 87°
2026-05-07 11:29 51.38288 -2.70944 635 ft 161 kts 91°
2026-05-07 11:29 51.38337 -2.69130 1357 ft 162 kts 91°
2026-05-07 11:29 51.38400 -2.67346 2132 ft 165 kts 91°
2026-05-07 11:30 51.38461 -2.65403 2544 ft 186 kts 90°
2026-05-07 11:30 51.38526 -2.63212 2901 ft 209 kts 91°
2026-05-07 11:30 51.38599 -2.60771 3275 ft 231 kts 90°
2026-05-07 11:30 51.38691 -2.58062 3764 ft 255 kts 87°
2026-05-07 11:31 51.39316 -2.55358 4542 ft 270 kts 52°
2026-05-07 11:31 51.40850 -2.53604 5428 ft 279 kts 18°
2026-05-07 11:31 51.42784 -2.53373 5872 ft 281 kts 346°
2026-05-07 11:31 51.44465 -2.54835 6193 ft 278 kts 309°
2026-05-07 11:32 51.46395 -2.60106 8042 ft 279 kts 292°
2026-05-07 11:32 51.47232 -2.62940 8906 ft 283 kts 293°
2026-05-07 11:32 51.48137 -2.65775 9776 ft 288 kts 296°
2026-05-07 11:33 51.49133 -2.68618 10363 ft 302 kts 298°
2026-05-07 11:33 51.50261 -2.71611 10654 ft 324 kts 300°
2026-05-07 11:33 51.51490 -2.74702 11281 ft 332 kts 301°
2026-05-07 11:33 51.52767 -2.77816 12011 ft 337 kts 302°
2026-05-07 11:34 51.54075 -2.80965 12767 ft 341 kts 302°
2026-05-07 11:34 51.55382 -2.84116 13505 ft 346 kts 302°
2026-05-07 11:34 51.56720 -2.87356 14200 ft 350 kts 302°
2026-05-07 11:34 51.58067 -2.90631 14894 ft 352 kts 301°
2026-05-07 11:35 51.59417 -2.93933 15598 ft 354 kts 301°
2026-05-07 11:35 51.60775 -2.97261 16289 ft 357 kts 301°
2026-05-07 11:35 51.62138 -3.00606 16975 ft 359 kts 301°
2026-05-07 11:35 51.63513 -3.03985 17653 ft 362 kts 301°
2026-05-07 11:36 51.64898 -3.07389 18320 ft 365 kts 301°
2026-05-07 11:36 51.66293 -3.10821 18906 ft 367 kts 301°
2026-05-07 11:36 51.67677 -3.14235 19468 ft 370 kts 301°
2026-05-07 11:36 51.69101 -3.17709 20050 ft 373 kts 304°
2026-05-07 11:37 51.70876 -3.20801 20597 ft 380 kts 318°
2026-05-07 11:37 51.73107 -3.23129 21154 ft 386 kts 333°
2026-05-07 11:37 51.75669 -3.24510 21722 ft 392 kts 347°
2026-05-07 11:37 51.78409 -3.24840 22020 ft 399 kts
2026-05-07 11:38 51.81132 -3.24256 22071 ft 387 kts
2026-05-07 11:38 51.83746 -3.23591 22070 ft 378 kts
2026-05-07 11:38 51.86334 -3.22930 22069 ft 376 kts
2026-05-07 11:38 51.88875 -3.22284 22067 ft 374 kts
2026-05-07 11:39 51.91450 -3.21638 22067 ft 375 kts
2026-05-07 11:39 51.94026 -3.21000 22064 ft 374 kts
2026-05-07 11:39 51.96600 -3.20367 22057 ft 374 kts
2026-05-07 11:39 51.99177 -3.19732 22056 ft 375 kts
2026-05-07 11:40 52.01746 -3.19096 22053 ft 374 kts
2026-05-07 11:40 52.04327 -3.18519 22044 ft 374 kts
2026-05-07 11:40 52.06048 -3.18369 22047 ft 374 kts
2026-05-07 11:40 52.09520 -3.18104 22047 ft 374 kts
2026-05-07 11:41 52.12085 -3.17911 22044 ft 374 kts
2026-05-07 11:41 52.14685 -3.17715 22044 ft 374 kts
2026-05-07 11:41 52.17284 -3.17520 22044 ft 374 kts
2026-05-07 11:41 52.19886 -3.17322 22043 ft 374 kts
2026-05-07 11:42 52.22485 -3.17123 22040 ft 374 kts
2026-05-07 11:42 52.25085 -3.16922 22049 ft 374 kts
2026-05-07 11:42 52.27681 -3.16721 22040 ft 374 kts
2026-05-07 11:42 52.30248 -3.16521 22040 ft 374 kts
2026-05-07 11:43 52.32852 -3.16318 22040 ft 375 kts
2026-05-07 11:43 52.35458 -3.16114 22041 ft 375 kts
2026-05-07 11:43 52.38064 -3.15908 22036 ft 375 kts
2026-05-07 11:43 52.40672 -3.15704 22038 ft 375 kts
2026-05-07 11:44 52.43281 -3.15504 22035 ft 375 kts
2026-05-07 11:44 52.45005 -3.15372 22042 ft 375 kts
2026-05-07 11:44 52.48501 -3.15100 22043 ft 376 kts
2026-05-07 11:44 52.51076 -3.14901 22049 ft 375 kts
2026-05-07 11:45 52.53680 -3.14701 22049 ft 376 kts
2026-05-07 11:45 52.56291 -3.14498 22052 ft 375 kts
2026-05-07 11:45 52.58901 -3.14292 22058 ft 375 kts
2026-05-07 11:45 52.61511 -3.14087 22052 ft 375 kts
2026-05-07 11:46 52.64119 -3.13882 22050 ft 375 kts
2026-05-07 11:46 52.66726 -3.13677 22055 ft 375 kts
2026-05-07 11:46 52.69327 -3.13472 22046 ft 375 kts
2026-05-07 11:46 52.71061 -3.13364 22248 ft 377 kts 359°
2026-05-07 11:47 52.74535 -3.13903 22950 ft 382 kts 351°
2026-05-07 11:47 52.77179 -3.14525 23499 ft 385 kts 351°
2026-05-07 11:47 52.79843 -3.15156 23913 ft 389 kts 351°
2026-05-07 11:47 52.82526 -3.15792 24019 ft 390 kts 351°
2026-05-07 11:48 52.85211 -3.16432 24049 ft 390 kts 351°
2026-05-07 11:48 52.86988 -3.16854 24047 ft 389 kts 351°
2026-05-07 11:48 52.89672 -3.17313 24047 ft 389 kts 359°
2026-05-07 11:48 52.92380 -3.17172 24050 ft 389 kts
2026-05-07 11:49 52.95962 -3.16886 24049 ft 389 kts
2026-05-07 11:49 52.98661 -3.16666 24053 ft 390 kts
2026-05-07 11:49 53.01368 -3.16446 24052 ft 389 kts
2026-05-07 11:49 53.04072 -3.16228 24051 ft 389 kts
2026-05-07 11:50 53.05869 -3.16085 24054 ft 390 kts
2026-05-07 11:50 53.08581 -3.15872 24060 ft 390 kts
2026-05-07 11:50 53.11294 -3.15660 24062 ft 390 kts
2026-05-07 11:50 53.14006 -3.15448 24062 ft 390 kts
2026-05-07 11:51 53.16710 -3.15236 24065 ft 390 kts
2026-05-07 11:51 53.19419 -3.15021 24063 ft 390 kts
2026-05-07 11:51 53.22127 -3.14805 24065 ft 389 kts
2026-05-07 11:51 53.24833 -3.14588 24065 ft 389 kts
2026-05-07 11:52 53.27501 -3.14373 24064 ft 389 kts
2026-05-07 11:52 53.30205 -3.14155 24062 ft 389 kts
2026-05-07 11:52 53.32907 -3.13940 24060 ft 389 kts
2026-05-07 11:52 53.35608 -3.13948 24058 ft 388 kts 353°
2026-05-07 11:53 53.38238 -3.14890 23975 ft 385 kts 340°
2026-05-07 11:53 53.40634 -3.16735 23674 ft 376 kts 327°
2026-05-07 11:53 53.42693 -3.19372 23162 ft 371 kts 313°
2026-05-07 11:53 53.44489 -3.22451 22713 ft 368 kts 312°
2026-05-07 11:54 53.46271 -3.25505 22264 ft 365 kts 312°
2026-05-07 11:54 53.48021 -3.28491 21830 ft 362 kts 313°
2026-05-07 11:54 53.49783 -3.31494 21390 ft 360 kts 313°
2026-05-07 11:54 53.51532 -3.34480 20958 ft 357 kts 312°
2026-05-07 11:55 53.53267 -3.37451 20528 ft 355 kts 312°
2026-05-07 11:55 53.54988 -3.40411 20104 ft 353 kts 312°
2026-05-07 11:55 53.56702 -3.43360 19676 ft 352 kts 312°
2026-05-07 11:55 53.58311 -3.46432 19252 ft 348 kts 304°
2026-05-07 11:56 53.59688 -3.49699 18844 ft 346 kts 303°
2026-05-07 11:56 53.61077 -3.52997 18431 ft 344 kts 303°
2026-05-07 11:56 53.62459 -3.56276 17979 ft 341 kts 303°
2026-05-07 11:56 53.63811 -3.59485 17410 ft 330 kts 303°
2026-05-07 11:57 53.65118 -3.62590 16871 ft 321 kts 303°
2026-05-07 11:57 53.66399 -3.65638 16233 ft 316 kts 302°
2026-05-07 11:57 53.67659 -3.68648 15587 ft 313 kts 302°
2026-05-07 11:57 53.68911 -3.71640 14971 ft 311 kts 302°
2026-05-07 11:58 53.70148 -3.74603 14373 ft 307 kts 302°
2026-05-07 11:58 53.71371 -3.77541 13758 ft 304 kts 301°
2026-05-07 11:58 53.72564 -3.80417 13093 ft 302 kts 301°
2026-05-07 11:58 53.73765 -3.83310 12422 ft 299 kts 301°
2026-05-07 11:59 53.74957 -3.86178 11765 ft 297 kts 301°
2026-05-07 11:59 53.76146 -3.89041 11327 ft 298 kts 301°
2026-05-07 11:59 53.77331 -3.91896 10964 ft 296 kts 301°
2026-05-07 11:59 53.78509 -3.94739 10607 ft 295 kts 301°
2026-05-07 12:00 53.79680 -3.97573 10251 ft 293 kts 301°
2026-05-07 12:00 53.80845 -4.00394 9897 ft 292 kts 301°
2026-05-07 12:00 53.81988 -4.03166 9510 ft 290 kts 301°
2026-05-07 12:00 53.83141 -4.05960 9116 ft 289 kts 301°
2026-05-07 12:01 53.84286 -4.08738 8734 ft 287 kts 301°
2026-05-07 12:01 53.85420 -4.11497 8348 ft 284 kts 301°
2026-05-07 12:01 53.86542 -4.14225 7725 ft 281 kts 301°
2026-05-07 12:01 53.87660 -4.16956 7292 ft 281 kts 301°
2026-05-07 12:02 53.88769 -4.19671 6936 ft 279 kts 300°
2026-05-07 12:02 53.89871 -4.22370 6564 ft 277 kts 300°
2026-05-07 12:02 53.90938 -4.24973 6406 ft 259 kts 300°
2026-05-07 12:02 53.91948 -4.27426 5992 ft 251 kts 300°
2026-05-07 12:03 53.92959 -4.29766 5674 ft 250 kts 307°
2026-05-07 12:03 53.94252 -4.31708 5301 ft 246 kts 323°
2026-05-07 12:03 53.95748 -4.32992 5005 ft 238 kts 338°
2026-05-07 12:03 53.97302 -4.33660 4868 ft 223 kts 345°
2026-05-07 12:04 53.98779 -4.34220 4598 ft 214 kts 344°
2026-05-07 12:04 54.00226 -4.34781 4203 ft 213 kts 344°
2026-05-07 12:04 54.01669 -4.35342 3912 ft 212 kts 344°
2026-05-07 12:04 54.03093 -4.35892 3646 ft 204 kts 344°
2026-05-07 12:05 54.04398 -4.36392 3542 ft 187 kts 344°
2026-05-07 12:05 54.05626 -4.36863 3380 ft 176 kts 343°
2026-05-07 12:05 54.06801 -4.37316 3229 ft 170 kts 343°
2026-05-07 12:05 54.07930 -4.37750 3071 ft 163 kts 343°
2026-05-07 12:06 54.09022 -4.38171 2864 ft 159 kts 342°
2026-05-07 12:06 54.09984 -4.38962 2618 ft 150 kts 313°
2026-05-07 12:06 54.10601 -4.40308 2505 ft 142 kts 288°
2026-05-07 12:06 54.10820 -4.41888 2362 ft 135 kts 264°
2026-05-07 12:07 54.10686 -4.43407 2206 ft 131 kts 252°
2026-05-07 12:07 54.10499 -4.44925 2039 ft 131 kts 251°
2026-05-07 12:07 54.10313 -4.46434 1863 ft 130 kts 251°
2026-05-07 12:07 54.10126 -4.47946 1683 ft 131 kts 252°
2026-05-07 12:08 54.09939 -4.49451 1501 ft 130 kts 252°
2026-05-07 12:08 54.09746 -4.50963 1321 ft 130 kts 253°
2026-05-07 12:08 54.09571 -4.52465 1158 ft 129 kts 253°
2026-05-07 12:08 54.09395 -4.53964 956 ft 129 kts 253°
2026-05-07 12:09 54.09200 -4.55471 730 ft 132 kts 252°
2026-05-07 12:09 54.09006 -4.56994 578 ft 134 kts 252°
2026-05-07 12:09 54.08809 -4.58576 436 ft 138 kts 254°
2026-05-07 12:09 54.08608 -4.60185 238 ft 138 kts 253°
2026-05-07 12:10 54.08409 -4.61776 57 ft 136 kts 252°
2026-05-07 12:10 54.08222 -4.63107 40 ft 70 kts 259°
2026-05-07 12:10 54.08187 -4.63389 39 ft 3 kts 253°
2026-05-07 12:10 54.08202 -4.63414 41 ft 6 kts 348°
2026-05-07 12:11 54.08213 -4.63402 40 ft 3 kts 44°
2026-05-07 12:11 54.08230 -4.63332 41 ft 7 kts 45°
2026-05-07 12:11 54.08270 -4.63327 41 ft 5 kts 336°
2026-05-07 12:11 54.08296 -4.63347 41 ft 4 kts 336°
2026-05-07 12:12 54.08318 -4.63359 41 ft 3 kts 345°
2026-05-07 12:12 54.08341 -4.63369 41 ft 4 kts 345°
2026-05-07 12:12 54.08373 -4.63382 41 ft 9 kts 349°
2026-05-07 12:12 54.08445 -4.63392 40 ft 10 kts 11°
2026-05-07 12:13 54.08502 -4.63335 40 ft 8 kts 28°
2026-05-07 12:13 54.08542 -4.63368 40 ft 5 kts 313°
2026-05-07 12:13 54.08552 -4.63414 40 ft 3 kts 260°
2026-05-07 12:13 54.08541 -4.63434 40 ft 2 kts 217°
2026-05-07 12:14 54.08538 -4.63439 40 ft 0 kts 227°